Regional Weather Roundup
Issued by NWS

Home | Current Version | Previous Version | Text Only | Print | Product List | Glossary On
Versions: 1 2 3 4 5 6 7 8 9 10 11 12 13 14 15 16 17 18 19 20 21 22 23 24 25 26 27 28 29 30 31 32 33 34 35 36 37 38 39 40 41 42 43 44 45 46 47 48 49 50
000
ASUS45 KREV 011810
RWRNV
NEVADA REGIONAL WEATHER ROUNDUP
NATIONAL WEATHER SERVICE RENO NV
1100 AM PDT WED OCT 01 2014

NOTE: "FAIR" INDICATES FEW OR NO CLOUDS BELOW 12,000 FEET WITH NO
SIGNIFICANT WEATHER AND/OR OBSTRUCTIONS TO VISIBILITY.

NVZ001-003-004-011900-
WESTERN NEVADA

CITY           SKY/WX    TMP DP  RH WIND       PRES   REMARKS
RENO           SUNNY     58  30  34 E8        30.19F
6HR MIN TEMP:  42; 6HR MAX TEMP:  60;

CARSON CITY    FAIR      57  25  28 E13G21    30.21S
MINDEN         FAIR      55  27  33 W3        30.22
SLIDE MTN        N/A     34  23  64 E10         N/A
PYRAMID LAKE     N/A     55 N/A N/A E9          N/A
FALLON         MOSUNNY   58  30  34 NE3       30.21S
6HR MIN TEMP:  34; 6HR MAX TEMP:  58;

LOVELOCK       SUNNY     58  27  30 N9        30.21S
6HR MIN TEMP:  34; 6HR MAX TEMP:  58;

HAWTHORNE      SUNNY     57  32  38 NW12      30.20
$$

NVZ002-CAZ072-073-011900-
NORTHERN AND CENTRAL SIERRA

CITY           SKY/WX    TMP DP  RH WIND       PRES   REMARKS
S. LAKE TAHOE  SUNNY     54  26  34 VRB6      30.18F
6HR MIN TEMP:  32; 6HR MAX TEMP:  54;

TRUCKEE        SUNNY     52  28  40 N7        30.19F
SQUAW VLY 8000 NOT AVBL
BLUE CANYON    SUNNY     59  19  21 E13G25    30.09R
MAMMOTH LAKES  FAIR      54  25  32 CALM      30.21S
BRIDGEPORT     FAIR      52  26  36 SE5       30.20S
$$

NVZ030-031-036-011900-
NORTHERN NEVADA

CITY           SKY/WX    TMP DP  RH WIND       PRES   REMARKS
ELKO           SUNNY     52  28  39 MISG      30.20R
6HR MIN TEMP:  27; 6HR MAX TEMP:  52;

WINNEMUCCA     SUNNY     52  34  50 NE8       30.23S
6HR MIN TEMP:  29; 6HR MAX TEMP:  53;

WENDOVER       MOSUNNY   54  28  37 NW15G24   30.15R
$$

NVZ035-037-011900-
CENTRAL NEVADA

CITY           SKY/WX    TMP DP  RH WIND       PRES   REMARKS
ELY            SUNNY     49  23  36 N14       30.18R
6HR MIN TEMP:  33; 6HR MAX TEMP:  50;

EUREKA           N/A     48  26  42 VRB3G17   30.21R
6HR MIN TEMP:  27; 6HR MAX TEMP:  50;

$$

NVZ013-014-011900-
SOUTH CENTRAL NEVADA

CITY           SKY/WX    TMP DP  RH WIND       PRES   REMARKS
TONOPAH        SUNNY     58  22  24 NW18G24   30.17S
6HR MIN TEMP:  47; 6HR MAX TEMP:  59;

$$

NVZ017-020-022-011900-
SOUTHERN NEVADA

CITY           SKY/WX    TMP DP  RH WIND       PRES   REMARKS
LAS VEGAS      SUNNY     80  33  18 N14       29.90S
6HR MIN TEMP:  67; 6HR MAX TEMP:  80;

N. LAS VEGAS   SUNNY     79  33  19 N21G28    29.92S
6HR MIN TEMP:  68; 6HR MAX TEMP:  79;

NELLIS AFB     SUNNY     79  35  20 NE20G28   29.92S
6HR MIN TEMP:  64; 6HR MAX TEMP:  79;

HENDERSON      SUNNY     79  38  22 NE13G20   29.96S
6HR MIN TEMP:  61; 6HR MAX TEMP:  79;

MERCURY        SUNNY     73  29  19 NE20G31   30.02S
6HR MIN TEMP:  63; 6HR MAX TEMP:  73;

$$



USA.gov is the U.S. government's official web portal to all federal, state and local government web resources and services.